Preview of NWS' New Version of Forecast
This preview is not operational and should not be used for support decisions.

Regional Weather Roundup (RWR)

Issued by National Weather Service (NWS)

                            
000
ASUS45 KBOU 191310
RWRCO 

WEATHER ROUNDUP FOR COLORADO
NATIONAL WEATHER SERVICE DENVER/BOULDER CO
700 AM MDT FRI APR 19 2019

NOTE: "FAIR" INDICATES FEW OR NO CLOUDS BELOW 12000 FEET WITH NO
SIGNIFICANT WEATHER AND/OR OBSTRUCTIONS TO VISIBILITY.

COZ001>005-013-030-031-191400-
...NORTHWEST COLORADO...
  
CITY           SKY/WX    TMP DP  RH WIND       PRES   REMARKS
CRAIG          FAIR      30  27  88 CALM      30.30S                  
HAYDEN         FAIR      37  28  70 E6        30.32R                  
MEEKER         FAIR      33  26  75 NE3       30.31R                  
RANGELY        FAIR      37  29  73 CALM      30.27S                  
RABBIT EARS PA FAIR      28  27  93 W8        30.37R WCI  20          
STEAMBOAT SPGS FAIR      32  30  92 E3        30.32S                  
WALDEN         FAIR      30  23  74 SE9       30.33R WCI  22          
$$

COZ006>008-011-191400-
...WEST CENTRAL VALLEYS...
  
CITY           SKY/WX    TMP DP  RH WIND       PRES   REMARKS
GRAND JUNCTION FAIR      43  28  55 E5        30.24R                  
MONTROSE       FAIR      36  26  67 S7        30.30R                  
EAGLE          FAIR      32  26  78 CALM      30.35R                  
RIFLE          FAIR      34  27  75 E5        30.30R WCI  30          
DELTA          FAIR      39  27  63 NE6       30.28S                  
NUCLA          FAIR      37  25  60 S3        30.32R                  
$$

COZ017>023-064>068-191400-
...SOUTHWEST COLORADO...
  
CITY           SKY/WX    TMP DP  RH WIND       PRES   REMARKS
DURANGO        FAIR      29  18  63 CALM      30.29R                  
CORTEZ         FAIR      32  24  72 NE7       30.28R WCI  26          
PAGOSA SPRINGS FAIR      33  23  66 CALM      30.32S                  
TELLURIDE      FAIR      32  21  64 SE6       30.40R WCI  26          
WOLF CREEK PAS FAIR      30  18  59 N5        30.52R WCI  25          
$$

COZ009-010-012-014-032>034-037-058>063-191400-
...CENTRAL COLORADO...
  
CITY           SKY/WX    TMP DP  RH WIND       PRES   REMARKS
ASPEN          FAIR      31  23  72 S6        30.34R WCI  25          
BUENA VISTA    FAIR      31  22  67 SW3       30.30S                  
COPPER MTN     FAIR      28  23  80 W13G24    30.43S WCI  18          
BERTHOUD PASS  FAIR      19  10  68 NW24G33   30.38R WCI   2          
COTTONWOOD PAS FAIR      37  19  48 NW12G21   30.34F                  
GUNNISON       FAIR      27  23  85 CALM      30.36R                  
GRANBY         FAIR      29  25  82 NE5       30.35R WCI  24          
KREMMLING      FAIR      30  27  86 CALM      30.34S                  
LEADVILLE      FAIR      29  21  72 N6        30.36R WCI  23          
MONARCH PASS   FAIR      28  19  69 NW21G28   30.53S WCI  15          
SALIDA         FAIR      34  21  60 CALM      30.37S                  
SUNLIGHT       FAIR      32  19  59 NW3       30.46R                  
WILKERSON PASS FAIR      32  18  55 NW16G24   30.39F WCI  21          
$$

COZ069>075-191400-
...SAN LUIS VALLEY/SANGRE DE CRISTO MOUNTAINS...
  
CITY           SKY/WX    TMP DP  RH WIND       PRES   REMARKS
ALAMOSA        FAIR      29  14  53 CALM      30.31R                  
DEL NORTE      FAIR      36  20  52 CALM      30.34R                  
LA VETA PASS   NOT AVBL                                               
SAGUACHE       FAIR      36  23  60 CALM      30.32S                  
$$

COZ035-036-038>040-191400-
...NORTHERN COLORADO FRONT RANGE...
  
CITY           SKY/WX    TMP DP  RH WIND       PRES   REMARKS
DENVER INTL AP FAIR      38  26  62 SW9       30.16F                  
AURORA         PTCLDY    37  26  62 S10       30.17F                  
FRONT RANGE AP FAIR      37  30  76 S7        30.18S                  
ERIE MUNI ARPT FAIR      35  29  80 CALM      30.22S                  
BOULDER MUN AP FAIR      36  28  75 CALM      30.16S                  
CENTENNIAL     FAIR      37  26  64 S6        30.18F                  
BROOMFIELD     NOT AVBL                                               
FORT COLLINS   FAIR      38  31  76 NE5       30.17F                  
LONGMONT       FAIR      39  29  68 W5        30.18F                  
$$

COZ041-046-047-076>085-087-088-191400-
...PIKES PEAK/PALMER DIVIDE AND SOUTHERN FOOTHILLS...
  
CITY           SKY/WX    TMP DP  RH WIND       PRES   REMARKS
COLO. SPRINGS  FAIR      37  23  56 N3        30.23S                  
A. F. ACADEMY  FAIR      29  22  76 N10       30.21S WCI  20          
SCHRIEVER AFB  NOT AVBL                                               
CHEYENNE MTN   FAIR      39  24  53 CALM      30.18S                  
ELLICOTT         N/A    N/A N/A N/A CALM      30.21F                  
FALCON         FAIR      35  22  59 W12       30.24S WCI  27          
FORT CARSON    FAIR      35  26  69 N5        30.23S WCI  31          
LIMON          FAIR      26  23  88 NW3       30.21S                  
MONUMENT HILL  FAIR      34  23  64 S10G16    30.23S WCI  26          
CANON CITY     NOT AVBL                                               
WALSENBURG     NOT AVBL                                               
TRINIDAD       FAIR      34  29  82 W12       30.23F WCI  25          
$$

COZ042>045-048>051-090-091-191400-
...NORTHEAST COLORADO...
  
CITY           SKY/WX    TMP DP  RH WIND       PRES   REMARKS
GREELEY ARPT   FAIR      33  27  78 CALM      30.18F                  
AKRON          FAIR      37  26  64 SW13      30.17S                  
BURLINGTON     FAIR      33  26  75 W6        30.20S WCI  28          
WRAY           FAIR      32  28  86 SW3       30.19S                  
YUMA           NOT AVBL                                               
STERLING       FAIR      32  30  93 S7        30.16S WCI  26          
HOLYOKE        FAIR      36  32  87 SW6       30.18R                  
FORT MORGAN    NOT AVBL                                               
$$

COZ086-089-092>099-191400-
...SOUTHEAST COLORADO...
  
CITY           SKY/WX    TMP DP  RH WIND       PRES   REMARKS
PUEBLO         FAIR      32  23  69 CALM      30.22R                  
LA JUNTA       FAIR      34  25  69 SW3       30.24R                  
LAMAR          FAIR      30  25  81 CALM      30.21S                  
SPRINGFIELD      N/A     30  27  88 CALM      30.22S                  
$$